Theta_e
316 316 317 318 318 318 318 319 319 319 320 320 320 320 320 322 321 308 294 305 309 329 330 311 310 309 308 303 297 295 289 287 288 291 293 295 295 299 302 300 301 303 302 305 308
316 316 316 317 318 318 318 318 319 319 320 320 319 320 321 321 311 300 313 325 330 331 309 307 305 307 298 296 296 291 286 288 292 293 291 293 294 297 299 298 299 301 304 306 306
316 316 316 317 318 318 318 318 319 319 319 319 319 320 321 319 297 299 329 330 333 325 311 309 307 304 296 294 294 290 288 291 295 296 297 296 296 297 296 295 298 299 301 303 305
315 315 315 317 318 318 318 318 318 319 319 318 320 321 322 308 288 303 334 336 337 321 309 305 300 294 291 290 294 292 294 294 295 297 295 295 298 297 296 299 302 303 302 302 302
315 316 316 316 317 318 318 318 318 318 318 319 320 321 308 300 298 308 334 324 311 311 304 301 297 293 290 291 294 290 294 297 298 297 295 297 296 295 296 301 302 301 302 302 303
314 315 315 316 317 317 318 317 317 317 318 319 321 322 309 294 307 310 309 311 310 305 303 302 300 297 293 292 291 294 295 297 297 297 295 295 296 296 299 301 301 301 301 301 302
314 314 315 316 316 317 318 316 315 316 318 320 322 318 309 299 308 307 308 305 306 306 303 303 302 301 296 295 297 297 294 295 296 295 295 296 293 294 299 300 300 300 299 301 302
313 313 314 315 316 317 317 317 315 317 319 321 322 312 304 314 307 306 305 305 306 306 306 306 304 299 295 297 297 293 291 286 294 295 296 294 288 295 299 297 297 300 301 301 301
313 313 313 314 315 316 316 315 317 318 321 321 310 306 299 314 306 310 307 305 306 306 306 310 302 296 296 291 288 288 284 285 288 293 292 290 288 295 298 297 296 297 299 300 301
313 313 313 314 315 315 314 315 317 315 319 319 313 299 302 302 306 308 308 308 304 303 301 299 294 291 288 287 281 284 282 284 286 291 291 291 290 294 297 297 296 297 297 298 300
312 313 313 313 314 314 308 304 301 301 302 299 303 303 305 306 307 305 308 305 302 298 291 293 289 285 288 290 291 288 286 287 289 293 290 290 291 293 297 296 295 295 295 297 300
312 312 312 313 314 313 305 304 302 303 297 304 306 306 309 306 300 304 307 299 297 292 293 290 285 292 295 294 292 290 288 288 290 293 291 291 291 294 295 295 296 296 300 302 302
312 312 312 313 313 306 303 306 309 304 295 302 306 305 306 304 300 300 303 299 295 292 291 287 292 296 294 292 291 289 288 287 287 292 292 290 287 290 294 296 300 303 304 305 305
312 312 312 312 307 304 304 309 305 305 294 302 302 305 303 301 299 305 305 301 295 292 291 290 295 294 292 291 291 286 292 292 291 287 283 289 280 286 291 295 298 302 303 303 305
311 312 312 311 301 304 308 307 305 307 284 302 301 305 300 298 299 301 304 300 294 293 293 291 292 292 290 292 294 289 294 292 291 286 283 284 281 285 292 293 296 300 303 304 306
311 312 311 308 304 307 308 304 308 295 288 297 298 296 295 296 298 300 301 302 299 294 294 293 296 294 293 297 296 296 291 288 285 282 277 283 283 282 287 293 297 301 303 305 305
310 311 307 309 304 305 305 304 293 288 299 293 293 295 292 295 298 299 296 293 290 287 286 291 293 296 297 291 294 292 284 277 276 276 276 285 283 285 292 298 300 301 302 305 305
309 308 307 308 303 307 303 297 288 297 293 297 295 294 293 297 296 297 294 291 295 291 286 283 283 293 296 292 288 287 285 277 275 274 279 286 280 285 298 302 303 305 304 305 307
307 307 310 308 311 304 298 289 290 294 297 295 293 291 291 296 295 294 292 292 295 293 286 284 286 295 296 296 293 287 283 287 281 281 276 281 286 292 298 298 301 303 305 306 306
302 307 309 311 308 303 293 291 295 300 299 296 289 294 288 291 291 291 291 297 297 298 294 290 283 293 296 297 294 291 291 281 278 273 274 279 282 284 291 295 298 300 301 302 307
303 302 310 305 306 299 291 293 298 302 301 296 292 291 291 291 292 290 292 296 299 298 295 290 286 288 292 289 287 287 285 284 283 281 274 276 280 290 294 297 295 298 300 301 305
297 295 309 303 294 292 292 296 300 301 302 300 296 295 293 293 291 291 291 295 302 299 291 292 286 282 288 294 295 290 287 286 279 277 282 281 281 293 292 299 298 298 300 301 303
295 297 309 303 289 288 293 297 300 299 299 299 296 298 296 292 286 292 294 300 301 297 293 293 283 281 283 285 290 287 290 288 285 281 281 280 281 292 292 293 294 295 298 300 302
298 291 295 296 294 290 290 293 295 302 300 298 296 297 293 291 293 290 293 298 299 298 305 298 283 284 280 284 286 285 289 289 286 282 283 284 285 290 291 293 296 295 298 298 298
294 291 293 287 289 290 290 294 293 292 297 297 294 294 292 287 289 289 292 293 296 299 294 289 281 285 287 289 289 289 289 289 286 287 284 286 286 290 294 295 295 297 298 297 297
293 291 293 290 291 291 291 290 294 294 294 292 291 294 292 287 288 286 289 288 288 292 288 289 281 285 284 289 289 287 289 289 291 291 290 289 288 296 297 296 295 295 295 295 297
296 296 293 290 290 288 289 292 294 294 296 296 294 291 290 292 294 294 294 294 292 289 285 282 279 280 280 287 287 282 287 289 290 293 293 287 291 293 292 293 293 295 296 295 296
Wind_Speed
13 12 11 9 9 9 9 9 9 9 10 10 11 11 12 12 11 1 2 4 3 9 7 6 3 5 3 2 0 3 6 1 2 2 6 4 5 4 4 5 3 3 3 3 9
14 13 11 11 9 9 9 9 9 9 9 9 10 11 12 10 2 3 5 4 3 5 6 9 9 8 4 3 4 5 4 6 4 2 4 3 3 4 3 8 5 3 4 1 4
15 14 13 12 11 9 8 7 8 8 9 9 10 10 10 6 4 2 8 5 2 1 1 2 1 2 7 4 6 1 2 2 3 4 6 8 6 1 1 5 7 10 11 5 2
16 15 14 14 13 11 10 9 8 9 9 9 9 11 11 3 5 5 6 2 1 5 2 4 7 5 5 4 4 2 1 2 4 3 4 5 8 10 2 11 7 10 9 6 6
18 16 15 15 14 12 11 10 9 8 9 9 10 12 4 6 1 7 7 7 5 6 6 4 6 3 3 3 4 3 4 6 6 7 5 1 6 6 7 14 9 9 10 11 11
18 17 16 14 13 12 9 8 7 6 6 7 9 11 4 6 5 6 6 9 5 4 7 7 4 1 3 2 2 3 5 9 7 10 5 5 7 4 11 8 8 9 12 11 11
19 19 17 16 15 14 11 8 7 6 5 5 6 3 3 4 2 2 5 2 2 2 3 1 2 7 3 7 5 6 8 11 6 7 5 6 9 11 11 12 15 14 9 10 11
20 19 18 17 16 15 14 11 9 6 4 1 4 2 3 4 1 1 3 5 6 3 2 4 3 4 2 2 7 5 5 3 8 7 7 5 11 6 11 9 14 18 14 12 13
20 19 19 18 17 17 16 15 9 5 4 2 1 4 6 8 2 5 5 2 4 4 1 1 4 3 5 4 6 7 3 4 7 5 4 0 8 8 12 9 11 12 14 15 12
21 19 18 18 17 16 19 8 2 2 5 3 1 2 3 2 4 3 4 3 1 5 6 7 6 4 4 5 3 5 4 6 7 6 2 8 9 8 13 8 14 13 13 12 13
23 20 18 17 15 14 10 3 7 5 3 4 3 3 5 4 0 4 3 3 3 7 3 4 5 1 6 6 6 4 5 7 6 6 4 9 10 12 14 9 11 10 10 12 14
23 22 20 17 14 11 1 3 5 5 7 6 7 6 7 2 4 2 4 3 3 1 1 7 1 6 5 5 5 5 4 9 6 5 4 11 14 15 8 9 5 6 9 11 13
22 20 19 16 14 2 1 4 5 5 3 7 5 5 4 7 5 5 9 4 3 1 2 4 7 5 3 6 7 5 6 4 7 6 6 8 9 4 8 4 8 9 8 8 9
22 20 17 18 3 3 2 6 6 1 5 5 2 4 3 3 4 6 7 6 1 6 3 5 4 4 6 4 3 4 3 4 7 5 10 4 9 5 5 7 9 12 12 12 13
23 19 14 5 3 2 4 8 3 5 5 1 1 2 2 5 2 2 2 4 7 5 5 9 3 7 4 2 2 6 4 7 8 5 2 6 2 8 6 6 7 10 13 14 14
23 16 8 1 1 5 7 4 5 6 2 2 2 3 4 2 5 2 3 4 2 3 3 7 3 2 4 0 2 5 5 3 5 2 2 4 3 5 4 3 4 7 12 14 15
25 15 2 1 2 4 4 5 6 4 3 4 3 4 2 5 7 8 4 3 2 6 4 6 5 2 3 4 5 9 8 7 7 5 6 2 5 10 3 2 1 5 9 11 11
28 10 4 4 2 5 5 7 4 2 3 3 4 4 4 7 3 6 4 6 5 4 1 1 8 2 1 3 3 3 6 6 6 4 13 7 7 6 4 4 3 5 6 7 15
18 4 3 3 4 4 7 5 4 1 2 3 4 4 4 3 2 8 5 2 1 2 1 3 5 4 7 3 6 3 3 4 3 4 4 4 7 4 2 3 3 6 6 8 4
3 4 4 3 4 6 6 2 2 4 3 1 1 1 2 3 3 6 3 3 3 5 2 4 8 6 1 3 1 6 5 3 3 4 5 5 9 10 3 3 5 6 7 9 4
5 5 4 6 5 6 3 3 4 4 5 3 4 3 2 2 1 2 5 6 6 4 3 2 4 5 2 5 6 4 1 3 2 4 4 6 9 5 7 5 6 8 6 8 7
4 3 5 3 6 2 2 4 5 3 4 3 3 5 5 3 2 4 6 5 4 1 2 2 3 7 12 10 8 6 7 7 5 6 5 5 16 8 10 6 6 12 12 10 8
2 4 4 4 3 4 6 6 3 6 5 6 5 2 2 1 3 4 4 1 7 5 5 2 3 10 11 6 4 1 4 4 3 2 11 9 11 4 6 13 10 7 12 10 7
3 5 6 6 2 3 4 4 6 8 2 4 4 6 6 3 3 5 5 3 7 6 15 1 3 9 10 15 5 8 11 7 6 5 15 13 25 20 9 9 8 8 8 8 6
5 1 2 5 4 4 1 3 5 7 3 9 5 5 4 4 4 5 4 7 5 9 1 3 5 7 13 18 15 17 20 14 14 17 10 20 17 18 13 13 6 7 6 8 11
3 4 5 4 4 4 5 4 5 4 3 4 3 6 2 3 3 5 5 5 7 5 4 2 8 5 10 15 15 15 20 20 17 17 14 18 20 6 4 3 5 7 7 9 12
3 2 3 3 4 2 2 4 5 5 2 5 2 3 4 3 7 14 15 17 13 9 1 4 2 2 6 6 10 10 11 9 4 5 5 7 7 3 4 5 6 9 11 13 12
Wind_Direction
15 12 7 358 352 347 345 343 344 342 338 332 329 325 324 334 322 121 31 223 305 321 317 282 176 352 72 350 78 88 59 329 268 16 282 290 17 315 294 355 339 9 116 283 315
12 7 4 0 352 344 339 335 335 334 329 326 324 321 318 332 13 47 253 262 286 330 9 9 352 1 46 8 22 82 108 219 224 298 278 282 3 292 6 341 319 311 218 267 318
9 5 357 356 352 344 336 330 330 328 325 323 318 312 304 307 53 300 216 224 156 39 250 279 320 53 48 11 347 26 169 318 329 303 326 327 319 298 72 320 274 290 296 311 267
4 2 357 350 349 348 341 335 334 330 327 321 313 314 319 197 95 269 230 126 208 209 128 32 27 48 59 40 306 89 349 113 293 301 316 294 309 317 240 249 225 261 271 296 270
1 357 351 345 344 345 340 335 334 331 327 323 325 331 356 31 309 265 319 354 47 11 46 65 58 96 44 318 341 58 304 303 291 313 264 248 266 229 261 272 288 276 286 287 292
357 355 349 343 339 337 334 324 321 315 315 322 330 323 36 59 258 278 8 347 357 29 1 28 29 81 85 2 85 277 303 320 320 308 295 358 310 41 281 293 259 278 271 276 280
354 352 347 342 338 335 329 322 312 294 288 319 344 25 61 216 228 252 124 244 262 176 305 258 127 57 9 349 349 345 353 348 352 336 306 351 348 328 307 337 322 313 280 261 262
352 349 345 341 337 332 325 314 300 277 271 314 350 70 245 271 345 113 123 279 245 248 234 267 111 84 93 298 2 5 56 39 301 335 295 60 294 292 305 314 305 309 305 293 282
348 347 344 339 335 329 319 309 285 251 185 167 29 68 287 314 239 231 174 240 300 301 328 -0 101 110 35 76 4 3 249 268 298 244 271 138 279 276 284 281 280 279 284 287 283
346 344 341 336 332 326 316 282 342 145 128 192 285 39 303 233 230 202 210 190 282 323 24 49 49 55 33 67 273 262 276 260 263 269 244 288 266 277 282 279 273 274 275 281 283
345 341 337 332 329 329 343 25 20 355 49 222 209 261 268 273 52 219 208 102 54 49 33 -0 59 200 244 201 216 232 227 254 239 251 310 267 290 288 289 285 283 294 304 300 295
342 338 334 329 324 325 322 73 197 201 304 243 242 247 255 235 288 282 106 133 83 313 322 15 289 224 257 250 238 234 281 290 293 272 290 286 293 283 284 268 304 317 319 329 332
338 334 331 325 321 46 341 254 335 120 65 297 206 203 220 142 231 249 143 161 163 248 233 152 244 292 275 329 322 301 254 269 271 297 242 297 286 269 305 317 18 356 320 318 336
338 334 332 323 40 307 311 308 326 175 60 287 253 280 103 108 272 214 172 145 135 220 245 230 262 262 322 283 252 302 252 273 287 322 302 115 292 301 312 330 21 348 341 331 340
339 336 339 345 167 77 288 318 286 57 53 215 180 317 85 167 286 249 161 68 197 217 119 247 248 286 268 206 265 242 303 255 261 238 18 320 358 268 352 335 349 338 340 353 354
336 336 336 23 24 258 314 341 54 46 44 23 77 358 0 306 299 18 51 38 144 176 233 245 240 204 196 194 20 300 329 307 37 61 34 231 88 272 298 278 318 333 342 345 355
337 329 277 27 222 316 343 46 42 95 334 358 342 351 84 330 8 27 10 350 273 339 327 327 292 84 70 26 346 23 34 333 345 357 235 234 310 246 291 200 63 309 320 322 340
335 328 204 224 50 8 45 49 75 332 13 15 345 350 97 18 356 1 11 358 25 69 336 68 329 341 66 148 251 295 135 149 288 275 290 288 245 254 216 198 212 292 306 336 355
327 332 331 285 138 72 66 63 197 326 307 338 333 59 352 357 7 21 340 247 153 84 116 302 262 270 282 188 120 292 240 190 238 227 330 250 297 306 50 354 307 297 312 306 15
17 342 291 345 115 63 72 227 260 321 321 66 114 104 315 306 25 27 310 259 216 220 125 270 291 242 284 61 207 184 172 12 1 295 283 292 286 261 199 263 282 312 310 302 306
33 32 301 351 58 47 106 243 302 329 13 189 208 247 235 248 135 225 251 305 28 359 315 268 160 260 51 202 245 283 286 101 163 168 207 306 269 226 234 233 286 296 289 280 247
5 41 313 28 43 23 34 296 293 310 353 302 149 193 202 199 238 237 233 233 95 181 329 298 214 270 268 254 254 168 201 156 139 257 221 249 265 257 268 243 279 307 306 299 246
33 276 320 72 74 345 320 312 306 353 340 345 347 346 55 132 336 223 245 273 65 43 9 329 310 311 309 355 355 176 199 173 123 56 247 261 272 259 322 330 319 327 312 314 337
33 355 334 33 51 72 6 300 333 329 41 11 27 47 11 315 240 281 267 295 352 318 291 303 199 205 255 270 241 264 242 224 194 220 277 242 278 284 295 313 317 324 341 330 330
25 9 164 319 351 344 276 310 340 355 14 23 31 39 309 295 302 273 330 320 274 273 117 106 239 224 259 268 269 260 266 247 218 236 231 277 270 280 279 263 255 278 286 317 338
57 28 356 304 317 335 3 21 8 337 309 3 41 309 308 268 212 285 272 230 227 294 72 339 277 291 278 267 265 271 270 270 255 250 252 261 267 272 297 204 262 267 302 312 306
326 356 99 287 343 40 31 317 22 354 1 89 346 336 301 247 266 266 257 265 251 269 235 215 181 16 268 350 317 289 263 259 235 217 216 241 258 214 264 282 283 290 303 294 286